Location: Tucson
(32.2217°N, 110.9265°W)
Time: 07:20:51
(UTC-07:00)

Vanguard 3 - All Passes

Search period start: 25 October 2021 00:00
Search period end: 04 November 2021 00:00
Orbit: 510 x 3259 km, 33.3° (Epoch: 24 October)

Date Brightness Start Highest point End Pass type
(mag) Time Alt. Az. Time Alt. Az. Time Alt. Az.
25 Oct - 02:04:01 10° SW 02:08:29 11° SW 02:13:06 10° SSW visible
25 Oct - 15:52:15 10° SW 15:56:29 52° SSE 16:03:09 10° E daylight
25 Oct - 18:02:35 10° W 18:08:29 83° N 18:19:20 10° E visible
25 Oct - 20:13:34 10° W 20:21:58 81° SSW 20:37:19 10° ESE visible
25 Oct - 22:25:33 10° W 22:36:35 48° SSW 22:53:40 10° SE visible
26 Oct - 00:41:40 10° WSW 00:51:59 20° SW 01:04:15 10° S night (unlit)
26 Oct - 14:39:43 10° SSW 14:42:58 25° SE 14:47:07 10° E daylight
26 Oct - 16:49:15 10° WSW 16:54:03 87° SSE 17:02:19 10° E daylight
26 Oct - 18:59:58 10° W 19:06:45 87° N 19:19:23 10° E visible
26 Oct - 21:11:13 10° W 21:20:35 61° SSW 21:36:48 10° SE visible
26 Oct - 23:24:37 10° W 23:35:33 30° SSW 23:50:30 10° SSE visible
27 Oct - 15:36:04 10° WSW 15:40:05 59° SSE 15:46:09 10° E daylight
27 Oct - 17:46:33 10° W 17:52:01 81° N 18:01:51 10° E visible
27 Oct - 19:57:25 10° W 20:05:07 75° SSW 20:19:18 10° ESE visible
27 Oct - 22:09:21 10° W 22:19:22 41° SSW 22:35:01 10° SE visible
28 Oct - 00:26:30 10° WSW 00:34:38 16° SW 00:44:11 10° S night (unlit)
28 Oct - 14:23:15 10° SSW 14:26:31 29° SSE 14:30:35 10° E daylight
28 Oct - 16:33:13 10° W 16:37:41 87° N 16:45:06 10° E daylight
28 Oct - 18:43:54 10° W 18:50:08 89° S 19:01:41 10° ESE visible
28 Oct - 20:55:02 10° W 21:03:36 54° SSW 21:18:26 10° SE visible
28 Oct - 23:08:46 10° W 23:18:19 25° SSW 23:31:16 10° SSE visible
29 Oct - 13:11:31 10° S 13:13:02 12° SSE 13:14:35 10° ESE daylight
29 Oct - 15:19:56 10° WSW 15:23:45 68° SSE 15:29:16 10° E daylight
29 Oct - 17:30:32 10° W 17:35:35 81° N 17:44:27 10° E daylight
29 Oct - 19:41:17 10° W 19:48:21 68° SSW 20:01:17 10° ESE visible
29 Oct - 21:53:19 10° W 22:02:18 35° SSW 22:16:12 10° SSE visible
30 Oct - 00:12:42 10° SW 00:17:28 12° SW 00:22:45 10° SSW night (unlit)
30 Oct - 14:06:48 10° SW 14:10:09 35° SSE 14:14:06 10° E daylight
30 Oct - 16:17:11 10° W 16:21:23 82° N 16:28:01 10° E daylight
30 Oct - 18:27:50 10° W 18:33:34 84° SSW 18:44:02 10° ESE visible
30 Oct - 20:38:57 10° W 20:46:43 46° SSW 21:00:01 10° SE visible
30 Oct - 22:53:19 10° WSW 23:01:13 20° SSW 23:11:38 10° S visible
31 Oct - 12:54:10 10° SSW 12:56:36 16° SSE 12:59:00 10° ESE daylight
31 Oct - 15:03:46 10° WSW 15:07:29 78° SSE 15:12:29 10° E daylight
31 Oct - 17:14:30 10° W 17:19:12 83° N 17:27:11 10° E daylight
31 Oct - 19:25:13 10° W 19:31:39 59° SSW 19:43:17 10° SE visible
31 Oct - 21:37:29 10° W 21:45:22 28° SSW 21:57:12 10° SSE visible
01 Nov - 13:50:20 10° SW 13:53:51 43° SSE 13:57:41 10° E daylight
01 Nov - 16:01:09 10° W 16:05:07 78° N 16:11:04 10° E daylight
01 Nov - 18:11:47 10° W 18:17:04 76° SSW 18:26:28 10° ESE visible
01 Nov - 20:23:00 10° W 20:29:58 37° SSW 20:41:32 10° SE visible
01 Nov - 22:38:34 10° WSW 22:44:17 15° SSW 22:51:20 10° S visible
02 Nov - 12:37:03 10° SSW 12:40:14 22° SSE 12:43:08 10° ESE daylight
02 Nov - 14:47:35 10° WSW 14:51:15 88° SSE 14:55:49 10° E daylight
02 Nov - 16:58:28 10° W 17:02:51 86° N 17:10:00 10° E daylight
02 Nov - 19:09:11 10° W 19:15:04 50° SSW 19:25:18 10° SE visible
02 Nov - 21:21:57 10° WSW 21:28:34 22° SSW 21:37:58 10° SSE visible
03 Nov - 11:24:35 10° S 11:26:21 12° SSE 11:27:58 10° SE daylight
03 Nov - 13:33:51 10° WSW 13:37:35 53° SSE 13:41:19 10° E daylight
03 Nov - 15:45:04 10° W 15:48:52 76° N 15:54:12 10° E daylight
03 Nov - 17:55:45 10° W 18:00:37 66° SSW 18:08:58 10° ESE visible
03 Nov - 20:07:11 10° W 20:13:19 30° SSW 20:22:58 10° SSE visible
